Year,Month,Day,Hour,Minute,Value (Times are PST for insolation in W/m^2)
2012,12,24,00,00,0.00
2012,12,24,00,01,0.00
2012,12,24,00,02,0.00
2012,12,24,00,03,0.00
2012,12,24,00,04,0.00
2012,12,24,00,05,0.00
2012,12,24,00,06,0.00
2012,12,24,00,07,0.00
2012,12,24,00,08,0.00
2012,12,24,00,09,0.00
2012,12,24,00,10,0.00
2012,12,24,00,11,0.00
2012,12,24,00,12,0.00
2012,12,24,00,13,0.00
2012,12,24,00,14,0.00
2012,12,24,00,15,0.00
2012,12,24,00,16,0.00
2012,12,24,00,17,0.00
2012,12,24,00,18,0.00
2012,12,24,00,19,0.00
2012,12,24,00,20,0.00
2012,12,24,00,21,0.00
2012,12,24,00,22,0.00
2012,12,24,00,23,0.00
2012,12,24,00,24,0.00
2012,12,24,00,25,0.00
2012,12,24,00,26,0.00
2012,12,24,00,27,0.00
2012,12,24,00,28,0.00
2012,12,24,00,29,0.00
2012,12,24,00,30,0.00
2012,12,24,00,31,0.00
2012,12,24,00,32,0.00
2012,12,24,00,33,0.00
2012,12,24,00,34,0.00
2012,12,24,00,35,0.00
2012,12,24,00,36,0.00
2012,12,24,00,37,0.00
2012,12,24,00,38,0.00
2012,12,24,00,39,0.00
2012,12,24,00,40,0.00
2012,12,24,00,41,0.00
2012,12,24,00,42,0.00
2012,12,24,00,43,0.00
2012,12,24,00,44,0.00
2012,12,24,00,45,0.00
2012,12,24,00,46,0.00
2012,12,24,00,47,0.00
2012,12,24,00,48,0.00
2012,12,24,00,49,0.00
2012,12,24,00,50,0.00
2012,12,24,00,51,0.00
2012,12,24,00,52,0.00
2012,12,24,00,53,0.00
2012,12,24,00,54,0.00
2012,12,24,00,55,0.00
2012,12,24,00,56,0.00
2012,12,24,00,57,0.00
2012,12,24,00,58,0.00
2012,12,24,00,59,0.00
2012,12,24,01,00,0.00
2012,12,24,01,01,0.00
2012,12,24,01,02,0.00
2012,12,24,01,03,0.00
2012,12,24,01,04,0.00
2012,12,24,01,05,0.00
2012,12,24,01,06,0.00
2012,12,24,01,07,0.00
2012,12,24,01,08,0.00
2012,12,24,01,09,0.00
2012,12,24,01,10,0.00
2012,12,24,01,11,0.00
2012,12,24,01,12,0.00
2012,12,24,01,13,0.00
2012,12,24,01,14,0.00
2012,12,24,01,15,0.00
2012,12,24,01,16,0.00
2012,12,24,01,17,0.00
2012,12,24,01,18,0.00
2012,12,24,01,19,0.00
2012,12,24,01,20,0.00
2012,12,24,01,21,0.00
2012,12,24,01,22,0.00
2012,12,24,01,23,0.00
2012,12,24,01,24,0.00
2012,12,24,01,25,0.00
2012,12,24,01,26,0.00
2012,12,24,01,27,0.00
2012,12,24,01,28,0.00
2012,12,24,01,29,0.00
2012,12,24,01,30,0.00
2012,12,24,01,31,0.00
2012,12,24,01,32,0.00
2012,12,24,01,33,0.00
2012,12,24,01,34,0.00
2012,12,24,01,35,0.00
2012,12,24,01,36,0.00
2012,12,24,01,37,0.00
2012,12,24,01,38,0.00
2012,12,24,01,39,0.00
2012,12,24,01,40,0.00
2012,12,24,01,41,0.00
2012,12,24,01,42,0.00
2012,12,24,01,43,0.00
2012,12,24,01,44,0.00
2012,12,24,01,45,0.00
2012,12,24,01,46,0.00
2012,12,24,01,47,0.00
2012,12,24,01,48,0.00
2012,12,24,01,49,0.00
2012,12,24,01,50,0.00
2012,12,24,01,51,0.00
2012,12,24,01,52,0.00
2012,12,24,01,53,0.00
2012,12,24,01,54,0.00
2012,12,24,01,55,0.00
2012,12,24,01,56,0.00
2012,12,24,01,57,0.00
2012,12,24,01,58,0.00
2012,12,24,01,59,0.00
2012,12,24,02,00,0.00
2012,12,24,02,01,0.00
2012,12,24,02,02,0.00
2012,12,24,02,03,0.00
2012,12,24,02,04,0.00
2012,12,24,02,05,0.00
2012,12,24,02,06,0.00
2012,12,24,02,07,0.00
2012,12,24,02,08,0.00
2012,12,24,02,09,0.00
2012,12,24,02,10,0.00
2012,12,24,02,11,0.00
2012,12,24,02,12,0.00
2012,12,24,02,13,0.00
2012,12,24,02,14,0.00
2012,12,24,02,15,0.00
2012,12,24,02,16,0.00
2012,12,24,02,17,0.00
2012,12,24,02,18,0.00
2012,12,24,02,19,0.00
2012,12,24,02,20,0.00
2012,12,24,02,21,0.00
2012,12,24,02,22,0.00
2012,12,24,02,23,0.00
2012,12,24,02,24,0.00
2012,12,24,02,25,0.00
2012,12,24,02,26,0.00
2012,12,24,02,27,0.00
2012,12,24,02,28,0.00
2012,12,24,02,29,0.00
2012,12,24,02,30,0.00
2012,12,24,02,31,0.00
2012,12,24,02,32,0.00
2012,12,24,02,33,0.00
2012,12,24,02,34,0.00
2012,12,24,02,35,0.00
2012,12,24,02,36,0.00
2012,12,24,02,37,0.00
2012,12,24,02,38,0.00
2012,12,24,02,39,0.00
2012,12,24,02,40,0.00
2012,12,24,02,41,0.00
2012,12,24,02,42,0.00
2012,12,24,02,43,0.00
2012,12,24,02,44,0.00
2012,12,24,02,45,0.00
2012,12,24,02,46,0.00
2012,12,24,02,47,0.00
2012,12,24,02,48,0.00
2012,12,24,02,49,0.00
2012,12,24,02,50,0.00
2012,12,24,02,51,0.00
2012,12,24,02,52,0.00
2012,12,24,02,53,0.00
2012,12,24,02,54,0.00
2012,12,24,02,55,0.00
2012,12,24,02,56,0.00
2012,12,24,02,57,0.00
2012,12,24,02,58,0.00
2012,12,24,02,59,0.00
2012,12,24,03,00,0.00
2012,12,24,03,01,0.00
2012,12,24,03,02,0.00
2012,12,24,03,03,0.00
2012,12,24,03,04,0.00
2012,12,24,03,05,0.00
2012,12,24,03,06,0.00
2012,12,24,03,07,0.00
2012,12,24,03,08,0.00
2012,12,24,03,09,0.00
2012,12,24,03,10,0.00
2012,12,24,03,11,0.00
2012,12,24,03,12,0.00
2012,12,24,03,13,0.00
2012,12,24,03,14,0.00
2012,12,24,03,15,0.00
2012,12,24,03,16,0.00
2012,12,24,03,17,0.00
2012,12,24,03,18,0.00
2012,12,24,03,19,0.00
2012,12,24,03,20,0.00
2012,12,24,03,21,0.00
2012,12,24,03,22,0.00
2012,12,24,03,23,0.00
2012,12,24,03,24,0.00
2012,12,24,03,25,0.00
2012,12,24,03,26,0.00
2012,12,24,03,27,0.00
2012,12,24,03,28,0.00
2012,12,24,03,29,0.00
2012,12,24,03,30,0.00
2012,12,24,03,31,0.00
2012,12,24,03,32,0.00
2012,12,24,03,33,0.00
2012,12,24,03,34,0.00
2012,12,24,03,35,0.00
2012,12,24,03,36,0.00
2012,12,24,03,37,0.00
2012,12,24,03,38,0.00
2012,12,24,03,39,0.00
2012,12,24,03,40,0.00
2012,12,24,03,41,0.00
2012,12,24,03,42,0.00
2012,12,24,03,43,0.00
2012,12,24,03,44,0.00
2012,12,24,03,45,0.00
2012,12,24,03,46,0.00
2012,12,24,03,47,0.00
2012,12,24,03,48,0.00
2012,12,24,03,49,0.00
2012,12,24,03,50,0.00
2012,12,24,03,51,0.00
2012,12,24,03,52,0.00
2012,12,24,03,53,0.00
2012,12,24,03,54,0.00
2012,12,24,03,55,0.00
2012,12,24,03,56,0.00
2012,12,24,03,57,0.00
2012,12,24,03,58,0.00
2012,12,24,03,59,0.00
2012,12,24,04,00,0.00
2012,12,24,04,01,0.00
2012,12,24,04,02,0.00
2012,12,24,04,03,0.00
2012,12,24,04,04,0.00
2012,12,24,04,05,0.00
2012,12,24,04,06,0.00
2012,12,24,04,07,0.00
2012,12,24,04,08,0.00
2012,12,24,04,09,0.00
2012,12,24,04,10,0.00
2012,12,24,04,11,0.00
2012,12,24,04,12,0.00
2012,12,24,04,13,0.00
2012,12,24,04,14,0.00
2012,12,24,04,15,0.00
2012,12,24,04,16,0.00
2012,12,24,04,17,0.00
2012,12,24,04,18,0.00
2012,12,24,04,19,0.00
2012,12,24,04,20,0.00
2012,12,24,04,21,0.00
2012,12,24,04,22,0.00
2012,12,24,04,23,0.00
2012,12,24,04,24,0.00
2012,12,24,04,25,0.00
2012,12,24,04,26,0.00
2012,12,24,04,27,0.00
2012,12,24,04,28,0.00
2012,12,24,04,29,0.00
2012,12,24,04,30,0.00
2012,12,24,04,31,0.00
2012,12,24,04,32,0.00
2012,12,24,04,33,0.00
2012,12,24,04,34,0.00
2012,12,24,04,35,0.00
2012,12,24,04,36,0.00
2012,12,24,04,37,0.00
2012,12,24,04,38,0.00
2012,12,24,04,39,0.00
2012,12,24,04,40,0.00
2012,12,24,04,41,0.00
2012,12,24,04,42,0.00
2012,12,24,04,43,0.00
2012,12,24,04,44,0.00
2012,12,24,04,45,0.00
2012,12,24,04,46,0.00
2012,12,24,04,47,0.00
2012,12,24,04,48,0.00
2012,12,24,04,49,0.00
2012,12,24,04,50,0.00
2012,12,24,04,51,0.00
2012,12,24,04,52,0.00
2012,12,24,04,53,0.00
2012,12,24,04,54,0.00
2012,12,24,04,55,0.00
2012,12,24,04,56,0.00
2012,12,24,04,57,0.00
2012,12,24,04,58,0.00
2012,12,24,04,59,0.00
2012,12,24,05,00,0.00
2012,12,24,05,01,0.00
2012,12,24,05,02,0.00
2012,12,24,05,03,0.00
2012,12,24,05,04,0.00
2012,12,24,05,05,0.00
2012,12,24,05,06,0.00
2012,12,24,05,07,0.00
2012,12,24,05,08,0.00
2012,12,24,05,09,0.00
2012,12,24,05,10,0.00
2012,12,24,05,11,0.00
2012,12,24,05,12,0.00
2012,12,24,05,13,0.00
2012,12,24,05,14,0.00
2012,12,24,05,15,0.00
2012,12,24,05,16,0.00
2012,12,24,05,17,0.00
2012,12,24,05,18,0.00
2012,12,24,05,19,0.00
2012,12,24,05,20,0.00
2012,12,24,05,21,0.00
2012,12,24,05,22,0.00
2012,12,24,05,23,0.00
2012,12,24,05,24,0.00
2012,12,24,05,25,0.00
2012,12,24,05,26,0.00
2012,12,24,05,27,0.00
2012,12,24,05,28,0.00
2012,12,24,05,29,0.00
2012,12,24,05,30,0.00
2012,12,24,05,31,0.00
2012,12,24,05,32,0.00
2012,12,24,05,33,0.00
2012,12,24,05,34,0.00
2012,12,24,05,35,0.00
2012,12,24,05,36,0.00
2012,12,24,05,37,0.00
2012,12,24,05,38,0.00
2012,12,24,05,39,0.00
2012,12,24,05,40,0.00
2012,12,24,05,41,0.00
2012,12,24,05,42,0.00
2012,12,24,05,43,0.00
2012,12,24,05,44,0.00
2012,12,24,05,45,0.00
2012,12,24,05,46,0.00
2012,12,24,05,47,0.00
2012,12,24,05,48,0.00
2012,12,24,05,49,0.00
2012,12,24,05,50,0.00
2012,12,24,05,51,0.00
2012,12,24,05,52,0.00
2012,12,24,05,53,0.00
2012,12,24,05,54,0.00
2012,12,24,05,55,0.00
2012,12,24,05,56,0.00
2012,12,24,05,57,0.00
2012,12,24,05,58,0.00
2012,12,24,05,59,0.00
2012,12,24,06,00,0.00
2012,12,24,06,01,0.00
2012,12,24,06,02,0.00
2012,12,24,06,03,0.00
2012,12,24,06,04,0.00
2012,12,24,06,05,0.00
2012,12,24,06,06,0.00
2012,12,24,06,07,0.00
2012,12,24,06,08,0.00
2012,12,24,06,09,0.00
2012,12,24,06,10,0.00
2012,12,24,06,11,0.00
2012,12,24,06,12,0.00
2012,12,24,06,13,0.00
2012,12,24,06,14,0.00
2012,12,24,06,15,0.00
2012,12,24,06,16,0.00
2012,12,24,06,17,0.00
2012,12,24,06,18,0.00
2012,12,24,06,19,0.00
2012,12,24,06,20,0.00
2012,12,24,06,21,0.00
2012,12,24,06,22,0.00
2012,12,24,06,23,0.00
2012,12,24,06,24,0.00
2012,12,24,06,25,0.00
2012,12,24,06,26,0.00
2012,12,24,06,27,0.00
2012,12,24,06,28,0.00
2012,12,24,06,29,0.00
2012,12,24,06,30,0.00
2012,12,24,06,31,0.00
2012,12,24,06,32,0.00
2012,12,24,06,33,0.00
2012,12,24,06,34,0.00
2012,12,24,06,35,0.00
2012,12,24,06,36,0.00
2012,12,24,06,37,0.00
2012,12,24,06,38,0.00
2012,12,24,06,39,0.00
2012,12,24,06,40,0.00
2012,12,24,06,41,0.00
2012,12,24,06,42,0.00
2012,12,24,06,43,0.00
2012,12,24,06,44,0.00
2012,12,24,06,45,0.00
2012,12,24,06,46,0.00
2012,12,24,06,47,0.00
2012,12,24,06,48,0.00
2012,12,24,06,49,0.00
2012,12,24,06,50,0.00
2012,12,24,06,51,0.00
2012,12,24,06,52,0.00
2012,12,24,06,53,0.00
2012,12,24,06,54,0.00
2012,12,24,06,55,0.00
2012,12,24,06,56,0.00
2012,12,24,06,57,0.00
2012,12,24,06,58,0.00
2012,12,24,06,59,0.00
2012,12,24,07,00,0.00
2012,12,24,07,01,0.00
2012,12,24,07,02,0.00
2012,12,24,07,03,0.00
2012,12,24,07,04,0.00
2012,12,24,07,05,0.00
2012,12,24,07,06,0.00
2012,12,24,07,07,0.00
2012,12,24,07,08,0.00
2012,12,24,07,09,0.00
2012,12,24,07,10,0.00
2012,12,24,07,11,0.00
2012,12,24,07,12,0.00
2012,12,24,07,13,0.00
2012,12,24,07,14,0.00
2012,12,24,07,15,0.00
2012,12,24,07,16,0.00
2012,12,24,07,17,0.00
2012,12,24,07,18,0.00
2012,12,24,07,19,0.00
2012,12,24,07,20,0.00
2012,12,24,07,21,0.00
2012,12,24,07,22,0.00
2012,12,24,07,23,0.00
2012,12,24,07,24,0.00
2012,12,24,07,25,0.00
2012,12,24,07,26,0.00
2012,12,24,07,27,0.00
2012,12,24,07,28,0.00
2012,12,24,07,29,0.00
2012,12,24,07,30,0.00
2012,12,24,07,31,0.00
2012,12,24,07,32,0.00
2012,12,24,07,33,0.00
2012,12,24,07,34,0.00
2012,12,24,07,35,0.00
2012,12,24,07,36,0.00
2012,12,24,07,37,0.00
2012,12,24,07,38,0.00
2012,12,24,07,39,0.00
2012,12,24,07,40,0.00
2012,12,24,07,41,0.00
2012,12,24,07,42,0.00
2012,12,24,07,43,0.00
2012,12,24,07,44,0.00
2012,12,24,07,45,0.00
2012,12,24,07,46,0.00
2012,12,24,07,47,0.00
2012,12,24,07,48,0.00
2012,12,24,07,49,0.00
2012,12,24,07,50,0.00
2012,12,24,07,51,0.00
2012,12,24,07,52,0.00
2012,12,24,07,53,0.00
2012,12,24,07,54,0.00
2012,12,24,07,55,0.00
2012,12,24,07,56,0.00
2012,12,24,07,57,0.00
2012,12,24,07,58,0.00
2012,12,24,07,59,0.00
2012,12,24,08,00,0.00
2012,12,24,08,01,0.00
2012,12,24,08,02,0.00
2012,12,24,08,03,0.00
2012,12,24,08,04,0.00
2012,12,24,08,05,0.00
2012,12,24,08,06,0.00
2012,12,24,08,07,0.00
2012,12,24,08,08,0.00
2012,12,24,08,09,0.00
2012,12,24,08,10,0.00
2012,12,24,08,11,0.00
2012,12,24,08,12,0.00
2012,12,24,08,13,0.00
2012,12,24,08,14,0.00
2012,12,24,08,15,0.00
2012,12,24,08,16,0.00
2012,12,24,08,17,0.00
2012,12,24,08,18,0.00
2012,12,24,08,19,0.00
2012,12,24,08,20,0.00
2012,12,24,08,21,0.00
2012,12,24,08,22,0.50
2012,12,24,08,23,5.00
2012,12,24,08,24,5.00
2012,12,24,08,25,5.00
2012,12,24,08,26,5.00
2012,12,24,08,27,5.00
2012,12,24,08,28,5.20
2012,12,24,08,29,7.00
2012,12,24,08,30,7.00
2012,12,24,08,31,7.00
2012,12,24,08,32,7.00
2012,12,24,08,33,8.70
2012,12,24,08,34,9.00
2012,12,24,08,35,9.00
2012,12,24,08,36,9.80
2012,12,24,08,37,11.00
2012,12,24,08,38,11.00
2012,12,24,08,39,11.00
2012,12,24,08,40,12.00
2012,12,24,08,41,12.00
2012,12,24,08,42,12.90
2012,12,24,08,43,14.00
2012,12,24,08,44,15.40
2012,12,24,08,45,16.00
2012,12,24,08,46,16.30
2012,12,24,08,47,18.00
2012,12,24,08,48,18.50
2012,12,24,08,49,20.30
2012,12,24,08,50,21.00
2012,12,24,08,51,22.80
2012,12,24,08,52,23.40
2012,12,24,08,53,25.00
2012,12,24,08,54,25.50
2012,12,24,08,55,26.00
2012,12,24,08,56,27.60
2012,12,24,08,57,30.00
2012,12,24,08,58,32.20
2012,12,24,08,59,33.70
2012,12,24,09,00,36.00
2012,12,24,09,01,38.40
2012,12,24,09,02,39.80
2012,12,24,09,03,42.10
2012,12,24,09,04,44.60
2012,12,24,09,05,47.70
2012,12,24,09,06,55.00
2012,12,24,09,07,57.30
2012,12,24,09,08,54.40
2012,12,24,09,09,79.00
2012,12,24,09,10,91.60
2012,12,24,09,11,109.40
2012,12,24,09,12,95.70
2012,12,24,09,13,95.20
2012,12,24,09,14,82.60
2012,12,24,09,15,74.00
2012,12,24,09,16,72.50
2012,12,24,09,17,69.00
2012,12,24,09,18,69.00
2012,12,24,09,19,69.70
2012,12,24,09,20,75.60
2012,12,24,09,21,91.40
2012,12,24,09,22,117.50
2012,12,24,09,23,128.00
2012,12,24,09,24,132.90
2012,12,24,09,25,133.50
2012,12,24,09,26,124.80
2012,12,24,09,27,104.80
2012,12,24,09,28,93.00
2012,12,24,09,29,103.50
2012,12,24,09,30,122.40
2012,12,24,09,31,122.30
2012,12,24,09,32,120.20
2012,12,24,09,33,99.80
2012,12,24,09,34,78.60
2012,12,24,09,35,66.30
2012,12,24,09,36,63.00
2012,12,24,09,37,63.00
2012,12,24,09,38,66.90
2012,12,24,09,39,71.20
2012,12,24,09,40,77.80
2012,12,24,09,41,82.60
2012,12,24,09,42,84.00
2012,12,24,09,43,80.00
2012,12,24,09,44,77.10
2012,12,24,09,45,75.60
2012,12,24,09,46,72.50
2012,12,24,09,47,69.50
2012,12,24,09,48,67.70
2012,12,24,09,49,65.40
2012,12,24,09,50,62.90
2012,12,24,09,51,61.00
2012,12,24,09,52,57.20
2012,12,24,09,53,55.00
2012,12,24,09,54,53.30
2012,12,24,09,55,51.40
2012,12,24,09,56,49.00
2012,12,24,09,57,48.50
2012,12,24,09,58,47.00
2012,12,24,09,59,46.40
2012,12,24,10,00,44.50
2012,12,24,10,01,44.00
2012,12,24,10,02,42.00
2012,12,24,10,03,42.00
2012,12,24,10,04,41.10
2012,12,24,10,05,39.40
2012,12,24,10,06,39.00
2012,12,24,10,07,37.30
2012,12,24,10,08,36.60
2012,12,24,10,09,34.40
2012,12,24,10,10,33.00
2012,12,24,10,11,32.40
2012,12,24,10,12,32.00
2012,12,24,10,13,30.20
2012,12,24,10,14,30.00
2012,12,24,10,15,30.00
2012,12,24,10,16,30.00
2012,12,24,10,17,31.20
2012,12,24,10,18,32.00
2012,12,24,10,19,33.20
2012,12,24,10,20,35.50
2012,12,24,10,21,37.70
2012,12,24,10,22,39.50
2012,12,24,10,23,41.30
2012,12,24,10,24,45.20
2012,12,24,10,25,47.30
2012,12,24,10,26,51.80
2012,12,24,10,27,54.70
2012,12,24,10,28,58.20
2012,12,24,10,29,62.10
2012,12,24,10,30,64.60
2012,12,24,10,31,67.20
2012,12,24,10,32,69.00
2012,12,24,10,33,69.40
2012,12,24,10,34,70.00
2012,12,24,10,35,70.00
2012,12,24,10,36,71.60
2012,12,24,10,37,72.30
2012,12,24,10,38,74.50
2012,12,24,10,39,75.10
2012,12,24,10,40,74.00
2012,12,24,10,41,72.60
2012,12,24,10,42,70.30
2012,12,24,10,43,69.00
2012,12,24,10,44,69.30
2012,12,24,10,45,70.90
2012,12,24,10,46,74.30
2012,12,24,10,47,76.00
2012,12,24,10,48,76.00
2012,12,24,10,49,76.20
2012,12,24,10,50,78.80
2012,12,24,10,51,85.20
2012,12,24,10,52,92.20
2012,12,24,10,53,98.80
2012,12,24,10,54,100.00
2012,12,24,10,55,98.60
2012,12,24,10,56,91.90
2012,12,24,10,57,88.00
2012,12,24,10,58,84.10
2012,12,24,10,59,81.50
2012,12,24,11,00,79.10
2012,12,24,11,01,76.80
2012,12,24,11,02,75.30
2012,12,24,11,03,74.00
2012,12,24,11,04,74.00
2012,12,24,11,05,74.00
2012,12,24,11,06,74.00
2012,12,24,11,07,74.50
2012,12,24,11,08,76.40
2012,12,24,11,09,78.10
2012,12,24,11,10,80.30
2012,12,24,11,11,81.00
2012,12,24,11,12,78.90
2012,12,24,11,13,77.00
2012,12,24,11,14,75.70
2012,12,24,11,15,72.90
2012,12,24,11,16,70.70
2012,12,24,11,17,69.20
2012,12,24,11,18,66.70
2012,12,24,11,19,65.00
2012,12,24,11,20,65.90
2012,12,24,11,21,68.20
2012,12,24,11,22,69.70
2012,12,24,11,23,73.80
2012,12,24,11,24,77.60
2012,12,24,11,25,81.60
2012,12,24,11,26,83.50
2012,12,24,11,27,85.20
2012,12,24,11,28,86.00
2012,12,24,11,29,86.00
2012,12,24,11,30,86.00
2012,12,24,11,31,86.00
2012,12,24,11,32,86.00
2012,12,24,11,33,86.00
2012,12,24,11,34,87.50
2012,12,24,11,35,88.10
2012,12,24,11,36,90.20
2012,12,24,11,37,91.70
2012,12,24,11,38,95.00
2012,12,24,11,39,97.60
2012,12,24,11,40,101.00
2012,12,24,11,41,104.10
2012,12,24,11,42,107.40
2012,12,24,11,43,109.70
2012,12,24,11,44,112.00
2012,12,24,11,45,113.70
2012,12,24,11,46,117.20
2012,12,24,11,47,123.20
2012,12,24,11,48,129.00
2012,12,24,11,49,132.00
2012,12,24,11,50,132.00
2012,12,24,11,51,130.70
2012,12,24,11,52,130.00
2012,12,24,11,53,130.30
2012,12,24,11,54,132.50
2012,12,24,11,55,135.20
2012,12,24,11,56,139.10
2012,12,24,11,57,143.00
2012,12,24,11,58,145.70
2012,12,24,11,59,144.20
2012,12,24,12,00,145.00
2012,12,24,12,01,136.40
2012,12,24,12,02,122.50
2012,12,24,12,03,118.00
2012,12,24,12,04,113.50
2012,12,24,12,05,107.90
2012,12,24,12,06,115.10
2012,12,24,12,07,118.10
2012,12,24,12,08,109.40
2012,12,24,12,09,107.90
2012,12,24,12,10,101.90
2012,12,24,12,11,86.00
2012,12,24,12,12,88.30
2012,12,24,12,13,97.30
2012,12,24,12,14,100.80
2012,12,24,12,15,98.50
2012,12,24,12,16,107.80
2012,12,24,12,17,106.60
2012,12,24,12,18,94.70
2012,12,24,12,19,88.10
2012,12,24,12,20,76.40
2012,12,24,12,21,67.80
2012,12,24,12,22,66.30
2012,12,24,12,23,59.50
2012,12,24,12,24,58.00
2012,12,24,12,25,61.50
2012,12,24,12,26,71.20
2012,12,24,12,27,79.60
2012,12,24,12,28,85.80
2012,12,24,12,29,92.50
2012,12,24,12,30,99.00
2012,12,24,12,31,102.00
2012,12,24,12,32,100.60
2012,12,24,12,33,103.40
2012,12,24,12,34,107.80
2012,12,24,12,35,116.60
2012,12,24,12,36,118.80
2012,12,24,12,37,120.60
2012,12,24,12,38,120.30
2012,12,24,12,39,116.80
2012,12,24,12,40,120.20
2012,12,24,12,41,115.40
2012,12,24,12,42,113.60
2012,12,24,12,43,108.60
2012,12,24,12,44,104.30
2012,12,24,12,45,104.00
2012,12,24,12,46,112.10
2012,12,24,12,47,125.30
2012,12,24,12,48,165.30
2012,12,24,12,49,223.00
2012,12,24,12,50,291.90
2012,12,24,12,51,299.70
2012,12,24,12,52,284.70
2012,12,24,12,53,317.80
2012,12,24,12,54,379.00
2012,12,24,12,55,400.40
2012,12,24,12,56,405.20
2012,12,24,12,57,408.20
2012,12,24,12,58,412.60
2012,12,24,12,59,409.20
2012,12,24,13,00,401.00
2012,12,24,13,01,390.10
2012,12,24,13,02,381.50
2012,12,24,13,03,366.00
2012,12,24,13,04,350.50
2012,12,24,13,05,344.90
2012,12,24,13,06,339.50
2012,12,24,13,07,333.40
2012,12,24,13,08,330.40
2012,12,24,13,09,328.80
2012,12,24,13,10,326.50
2012,12,24,13,11,325.00
2012,12,24,13,12,326.00
2012,12,24,13,13,328.40
2012,12,24,13,14,331.50
2012,12,24,13,15,334.00
2012,12,24,13,16,334.00
2012,12,24,13,17,334.00
2012,12,24,13,18,332.90
2012,12,24,13,19,330.60
2012,12,24,13,20,336.80
2012,12,24,13,21,330.60
2012,12,24,13,22,322.10
2012,12,24,13,23,319.10
2012,12,24,13,24,316.80
2012,12,24,13,25,316.00
2012,12,24,13,26,309.20
2012,12,24,13,27,307.90
2012,12,24,13,28,302.00
2012,12,24,13,29,299.10
2012,12,24,13,30,301.00
2012,12,24,13,31,306.00
2012,12,24,13,32,308.50
2012,12,24,13,33,307.10
2012,12,24,13,34,299.90
2012,12,24,13,35,295.00
2012,12,24,13,36,298.60
2012,12,24,13,37,301.80
2012,12,24,13,38,295.30
2012,12,24,13,39,290.00
2012,12,24,13,40,279.90
2012,12,24,13,41,287.50
2012,12,24,13,42,287.00
2012,12,24,13,43,278.50
2012,12,24,13,44,287.40
2012,12,24,13,45,288.40
2012,12,24,13,46,294.20
2012,12,24,13,47,301.50
2012,12,24,13,48,296.20
2012,12,24,13,49,294.80
2012,12,24,13,50,293.70
2012,12,24,13,51,277.30
2012,12,24,13,52,266.20
2012,12,24,13,53,279.90
2012,12,24,13,54,248.90
2012,12,24,13,55,240.20
2012,12,24,13,56,236.40
2012,12,24,13,57,208.00
2012,12,24,13,58,187.20
2012,12,24,13,59,226.40
2012,12,24,14,00,294.90
2012,12,24,14,01,320.60
2012,12,24,14,02,323.00
2012,12,24,14,03,322.70
2012,12,24,14,04,321.20
2012,12,24,14,05,293.00
2012,12,24,14,06,276.20
2012,12,24,14,07,304.80
2012,12,24,14,08,284.00
2012,12,24,14,09,148.90
2012,12,24,14,10,158.20
2012,12,24,14,11,150.80
2012,12,24,14,12,160.00
2012,12,24,14,13,163.10
2012,12,24,14,14,144.00
2012,12,24,14,15,142.50
2012,12,24,14,16,136.50
2012,12,24,14,17,131.50
2012,12,24,14,18,126.20
2012,12,24,14,19,118.20
2012,12,24,14,20,108.60
2012,12,24,14,21,104.60
2012,12,24,14,22,98.50
2012,12,24,14,23,100.20
2012,12,24,14,24,103.60
2012,12,24,14,25,104.00
2012,12,24,14,26,104.20
2012,12,24,14,27,105.00
2012,12,24,14,28,104.50
2012,12,24,14,29,100.10
2012,12,24,14,30,93.80
2012,12,24,14,31,90.90
2012,12,24,14,32,88.00
2012,12,24,14,33,85.20
2012,12,24,14,34,78.40
2012,12,24,14,35,74.70
2012,12,24,14,36,72.30
2012,12,24,14,37,72.00
2012,12,24,14,38,72.00
2012,12,24,14,39,74.00
2012,12,24,14,40,80.50
2012,12,24,14,41,86.50
2012,12,24,14,42,90.60
2012,12,24,14,43,91.30
2012,12,24,14,44,93.00
2012,12,24,14,45,93.00
2012,12,24,14,46,91.30
2012,12,24,14,47,87.20
2012,12,24,14,48,81.80
2012,12,24,14,49,75.40
2012,12,24,14,50,71.40
2012,12,24,14,51,69.60
2012,12,24,14,52,69.00
2012,12,24,14,53,67.40
2012,12,24,14,54,67.00
2012,12,24,14,55,66.70
2012,12,24,14,56,64.40
2012,12,24,14,57,63.00
2012,12,24,14,58,61.20
2012,12,24,14,59,56.80
2012,12,24,15,00,54.20
2012,12,24,15,01,52.60
2012,12,24,15,02,50.30
2012,12,24,15,03,48.00
2012,12,24,15,04,45.20
2012,12,24,15,05,42.50
2012,12,24,15,06,38.80
2012,12,24,15,07,34.60
2012,12,24,15,08,32.70
2012,12,24,15,09,32.00
2012,12,24,15,10,30.70
2012,12,24,15,11,30.00
2012,12,24,15,12,29.80
2012,12,24,15,13,27.60
2012,12,24,15,14,26.00
2012,12,24,15,15,25.50
2012,12,24,15,16,23.70
2012,12,24,15,17,23.00
2012,12,24,15,18,23.00
2012,12,24,15,19,22.50
2012,12,24,15,20,21.00
2012,12,24,15,21,22.10
2012,12,24,15,22,23.00
2012,12,24,15,23,23.00
2012,12,24,15,24,23.00
2012,12,24,15,25,23.00
2012,12,24,15,26,23.00
2012,12,24,15,27,23.00
2012,12,24,15,28,23.00
2012,12,24,15,29,23.00
2012,12,24,15,30,22.70
2012,12,24,15,31,21.00
2012,12,24,15,32,21.00
2012,12,24,15,33,21.00
2012,12,24,15,34,21.00
2012,12,24,15,35,20.90
2012,12,24,15,36,19.00
2012,12,24,15,37,19.00
2012,12,24,15,38,19.00
2012,12,24,15,39,19.00
2012,12,24,15,40,18.20
2012,12,24,15,41,18.00
2012,12,24,15,42,18.00
2012,12,24,15,43,17.30
2012,12,24,15,44,16.00
2012,12,24,15,45,16.00
2012,12,24,15,46,16.00
2012,12,24,15,47,14.10
2012,12,24,15,48,14.00
2012,12,24,15,49,14.00
2012,12,24,15,50,14.00
2012,12,24,15,51,14.00
2012,12,24,15,52,14.00
2012,12,24,15,53,14.00
2012,12,24,15,54,14.00
2012,12,24,15,55,14.00
2012,12,24,15,56,14.00
2012,12,24,15,57,14.00
2012,12,24,15,58,14.00
2012,12,24,15,59,13.70
2012,12,24,16,00,12.00
2012,12,24,16,01,12.00
2012,12,24,16,02,12.00
2012,12,24,16,03,12.00
2012,12,24,16,04,12.00
2012,12,24,16,05,11.80
2012,12,24,16,06,11.00
2012,12,24,16,07,11.00
2012,12,24,16,08,9.80
2012,12,24,16,09,9.00
2012,12,24,16,10,7.30
2012,12,24,16,11,7.00
2012,12,24,16,12,6.40
2012,12,24,16,13,5.00
2012,12,24,16,14,5.00
2012,12,24,16,15,1.20
2012,12,24,16,16,0.00
2012,12,24,16,17,0.00
2012,12,24,16,18,0.00
2012,12,24,16,19,0.00
2012,12,24,16,20,0.00
2012,12,24,16,21,0.00
2012,12,24,16,22,0.00
2012,12,24,16,23,0.00
2012,12,24,16,24,0.00
2012,12,24,16,25,0.00
2012,12,24,16,26,0.00
2012,12,24,16,27,0.00
2012,12,24,16,28,0.00
2012,12,24,16,29,0.00
2012,12,24,16,30,0.00
2012,12,24,16,31,0.00
2012,12,24,16,32,0.00
2012,12,24,16,33,0.00
2012,12,24,16,34,0.00
2012,12,24,16,35,0.00
2012,12,24,16,36,0.00
2012,12,24,16,37,0.00
2012,12,24,16,38,0.00
2012,12,24,16,39,0.00
2012,12,24,16,40,0.00
2012,12,24,16,41,0.00
2012,12,24,16,42,0.00
2012,12,24,16,43,0.00
2012,12,24,16,44,0.00
2012,12,24,16,45,0.00
2012,12,24,16,46,0.00
2012,12,24,16,47,0.00
2012,12,24,16,48,0.00
2012,12,24,16,49,0.00
2012,12,24,16,50,0.00
2012,12,24,16,51,0.00
2012,12,24,16,52,0.00
2012,12,24,16,53,0.00
2012,12,24,16,54,0.00
2012,12,24,16,55,0.00
2012,12,24,16,56,0.00
2012,12,24,16,57,0.00
2012,12,24,16,58,0.00
2012,12,24,16,59,0.00
2012,12,24,17,00,0.00
2012,12,24,17,01,0.00
2012,12,24,17,02,0.00
2012,12,24,17,03,0.00
2012,12,24,17,04,0.00
2012,12,24,17,05,0.00
2012,12,24,17,06,0.00
2012,12,24,17,07,0.00
2012,12,24,17,08,0.00
2012,12,24,17,09,0.00
2012,12,24,17,10,0.00
2012,12,24,17,11,0.00
2012,12,24,17,12,0.00
2012,12,24,17,13,0.00
2012,12,24,17,14,0.00
2012,12,24,17,15,0.00
2012,12,24,17,16,0.00
2012,12,24,17,17,0.00
2012,12,24,17,18,0.00
2012,12,24,17,19,0.00
2012,12,24,17,20,0.00
2012,12,24,17,21,0.00
2012,12,24,17,22,0.00
2012,12,24,17,23,0.00
2012,12,24,17,24,0.00
2012,12,24,17,25,0.00
2012,12,24,17,26,0.00
2012,12,24,17,27,0.00
2012,12,24,17,28,0.00
2012,12,24,17,29,0.00
2012,12,24,17,30,0.00
2012,12,24,17,31,0.00
2012,12,24,17,32,0.00
2012,12,24,17,33,0.00
2012,12,24,17,34,0.00
2012,12,24,17,35,0.00
2012,12,24,17,36,0.00
2012,12,24,17,37,0.00
2012,12,24,17,38,0.00